Regional Weather Roundup
Issued by NWS Midland/Odessa, TX

Skip options and go directly to product.
Home | Oldest Version | Previous Version | Current Version | All | Graphics & Text | Save Text | Print | Product List | Glossary On

Skip product version selection by date and time.   
201
ASUS44 KMAF 241310
RWRMAF
MIDLAND AREA WEATHER ROUNDUP
NATIONAL WEATHER SERVICE MIDLAND TX
800 AM CDT FRI OCT 24 2014

...IN SOUTHWEST TEXAS AND SOUTHEAST NEW MEXICO...

CITY           SKY/WX    TMP DP  RH WIND       PRES   REMARKS
ALPINE         CLEAR     56  54  91 SW8       30.31R
ANDREWS        FAIR      58  57  97 SW7       30.17R
ARTESIA        NOT AVBL
BIG SPRING     CLOUDY    59  58  94 SE3       30.18R VSB 1/4
CARLSBAD       CLEAR     54  51  90 CALM      30.16R
DRYDEN           N/A     61  60  97 N3        30.15R
FORT STOCKTON  CLEAR     60  55  83 SW9       30.17R
GUAD PASS      CLEAR     57  48  72 SW8       30.30R
HOBBS          FOG       50  50 100 CALM      30.19R VSB 0
MARFA          CLEAR     48  46  93 N7        30.29R
MIDLAND AIRPK  FOG       60  60 100 SW3       30.17R VSB 1/2
MIDLAND INTL   FOG       56  55  97 S3        30.16R VSB 1/4
ODESSA         CLEAR     59  58  96 S6        30.17R FOG
PECOS          FOG       54  53  96 W3        30.16R VSB 1/4
PRESIDIO       FAIR      61  56  84 NW5       30.19R
SEMINOLE       CLEAR     55  55  97 W7        30.18R FOG
SNYDER         DRZL/FOG  56  56  99 S6        30.16R VSB 1/4
WINK           MOCLDY    59  32  36 SE3       30.15R
$$
...OTHER STATIONS IN TEXAS...

CITY           SKY/WX    TMP DP  RH WIND       PRES   REMARKS
ABILENE        CLEAR     63  59  87 SW3       30.14R
AMARILLO       CLEAR     52  49  89 W6        30.13S
AUSTIN         PTCLDY    56  55  97 CALM      30.15R
BROWNSVILLE    CLEAR     70  67  90 N6        30.10R
CORPUS CHRISTI CLEAR     64  63  96 N5        30.11R
DALLAS FTW     MOCLDY    61  56  83 SE6       30.14R
DEL RIO        CLEAR     62  59  90 E7        30.12R
EL PASO        CLEAR     56  51  84 NE6       30.21R
HOUSTON INT    CLEAR     54  52  93 VRB5      30.15R
LUBBOCK        CLEAR     52  49  89 W3        30.15S
SAN ANGELO     CLEAR     54  53  97 CALM      30.15R FOG
SAN ANTONIO    CLEAR     62  57  83 CALM      30.15R
WACO           CLEAR     59  54  83 SE6       30.15R
WICHITA FALLS  NOT AVBL
$$
...OTHER LOCATIONS IN NEW MEXICO...

CITY           SKY/WX    TMP DP  RH WIND       PRES   REMARKS
ALAMAGORDO     NOT AVBL
ALBUQUERQUE    CLEAR     49  36  61 NE5       30.31R
CANNON AFB     CLEAR     53  51  92 W7        30.18R
CLOVIS         CLEAR     48  46  93 W7        30.20R
HOLLOMAN AFB   CLEAR     53  45  73 CALM      30.22R
ROSWELL        CLEAR     50  45  83 CALM      30.18R
RUIDOSO        CLEAR     48  36  61 W8        30.36
SANTA FE       CLEAR     45  30  55 N13       30.31R WCI  39
TRUTH OR CONSE CLEAR     53  44  71 NW8       30.26R
TUCUMCARI      CLEAR     45  40  82 SW6       30.15S
$$

USA.gov is the U.S. government's official web portal to all federal, state and local government web resources and services.